Tracking 17694 objects as of 30-May-2016
HD Live streaming from Space Station
objects crossing your sky now

COSMOS 252 DEB

Track COSMOS 252 DEB now!
10-day predictions


NORAD ID: 3559
Int'l Code: 1968-097M
Perigee: 508.8 km
Apogee: 1,358.8 km
Inclination: 62.3 °
Period: 103.6 minutes
Semi major axis: 7304 km
RCS: 0.1149 m2 (medium)
Launch date: November 1, 1968
Source: Commonwealth of Independent States (former USSR) (CIS)
Launch site: TYURATAM MISSILE AND SPACE COMPLEX (TTMTR)

Note: This is SATELLITE DEBRIS
Your satellite tracking list
Your tracking list is empty





NASA's NSSDC Master Catalog

Two Line Element Set (TLE):
1 03559U 68097M   16151.18143030  .00000716  00000-0  17196-3 0  9997
2 03559  62.2923 296.5257 0581833  57.6158 307.9823 13.90555920330922
Source of the keplerian elements: AFSPC

N2YO: 517